Regional Weather Roundup
Issued by NWS Newport/Morehead, NC

Current Version | Previous Version | Graphics & Text | Print | Product List | Glossary On
Versions: 1 2 3 4 5 6 7 8 9 10 11 12 13 14 15 16 17 18 19 20 21 22 23 24 25 26 27 28 29 30 31 32 33 34 35 36 37 38 39 40 41 42 43 44 45 46 47 48 49 50
000 ASUS42 KMHX 271113 RWRMHX WEATHER ROUNDUP FOR EASTERN NORTH CAROLINA NATIONAL WEATHER SERVICE NEWPORT/MOREHEAD CITY NC 700 AM EDT WED MAY 27 2015 NOTE: "FAIR" INDICATES FEW OR NO CLOUDS BELOW 12,000 FEET WITH NO SIGNIFICANT WEATHER AND/OR OBSTRUCTIONS TO VISIBILITY NCZ015>017-031-032-045>047-102-103-271200- NORTH COAST CITY SKY/WX TMP DP RH WIND PRES REMARKS EDENTON CLOUDY 72 67 85 S8 30.25R ELIZABETH CITY PTSUNNY 72 66 81 S10 30.25R KITTY HAWK PTSUNNY 73 65 77 S7 30.25S MANTEO PTSUNNY 73 66 79 S13 30.27R $$ NCZ045>047-081-094-103-104-271200- CENTRAL COAST CITY SKY/WX TMP DP RH WIND PRES REMARKS FRISCO PTSUNNY 73 62 68 S9 30.29R SWANQUARTER N/A 73 N/A N/A S9 30.24S $$ NCZ095-097-098-100-101-271200- SOUTHERN COAST CITY SKY/WX TMP DP RH WIND PRES REMARKS BEAUFORT CLOUDY 74 67 78 S6 30.27R CEDAR ISLAND N/A 73 N/A N/A S6 30.30S JACKSONVILLE PTSUNNY 74 70 87 S7 30.25R PINEY ISLAND PTSUNNY N/A N/A N/A SE5 30.26S WILMINGTON MOSUNNY 73 69 87 SE3 30.24R $$ NCZ011>013-027>030-043-044-078>080-089-090>093-098-271200- COASTAL PLAIN CITY SKY/WX TMP DP RH WIND PRES REMARKS AHOSKIE SUNNY 70 67 92 S6 30.24R CLINTON MOCLDY 71 70 98 CALM 30.25R ELIZABETHTOWN CLEAR 70 70 100 CALM 30.24R GOLDSBORO CLOUDY 72 70 94 CALM 30.22R GREENVILLE CLOUDY 72 70 94 S8 30.25S HAVELOCK CLOUDY 72 67 84 SE3 30.27R KENANSVILLE CLOUDY 70 69 96 CALM 30.26R FOG KINSTON NOT AVBL NEW BERN PTSUNNY 72 67 84 SE6 30.26S RICHLANDS PTSUNNY 72 66 83 CALM 30.26R ROCKY MOUNT PTSUNNY 72 70 93 S7 30.23S WASHINGTON MOSUNNY 71 67 89 S5 30.25S WHITEVILLE CLEAR 71 69 93 CALM 30.23R $$ AMZ130-135-150-152-154-156-158-170-250-252-270-ANZ085-086-088-633-658-670-271200- MARINE OBSERVATIONS STATION/POSITION TIME TEMP WIND PRES WAVE SWELL AIR SEA DIR/SP/G HT/PER HT/PER (UTC) (F) (DEG/KT/KT) (MB) (FT/S) (FT/S) CHESAPEAKE LIGHT 1000 67 180/ 20/ 21 1023.9 64 E VA BEACH 1050 66 62 170/ 10/ 12 1024.6 3/ 6 2/ 6 DUCK 1000 72 56 190/ 14/ 16 1023.4 2 E DUCK 1011 61 N/A 2/ 5 OREGON INLET 1000 73 76 190/ 12/ 14 1024.8 13E OREGON INLT 1100 68 N/A 3/ 5 HATTERAS CG 1000 73 75 180/ 6/ 9 1024.6 DIAMOND BUOY 1050 75 76 200/ 8/ 12 1025.6 3/ 7 2/ 7 CAPE LOOKOUT 1100 73 200/ 4/ 5 1024.7 BEAUFORT LAB 1000 75 75 170/ 7/ 9 1023.8 27 SE WRIGHTSVLE 1000 72 76 180/ 8/ 10 N/A 5 SE WRIGHTSVLE 1008 76 76 190/ 8/ 10 1023.9 225 S CAPE HAT 1050 72 74 100/ 6/ 8 1025.8 4/ 7 3/ 7 41 SE CHARLESTON 1050 77 76 150/ 10/ 12 1022.8 3/ 7 3/ 7 $$

USA.gov is the U.S. government's official web portal to all federal, state and local government web resources and services.